Location: Brookfield Center
(41.2406°N, 80.5579°W)
Time: 02:24:57
(UTC+00:00)

Cosmos 1953 - Pass Details

Date: 18 January 2020
Orbit: 539 x 558 km, 82.5° (Epoch: 22 February)

Event Time Altitude Azimuth Distance (km) Brightness Sun altitude
Rises 11:39:34 0° 211° (SSW) 2,716 5.7 -12.1°
Reaches altitude 10° 11:41:56 10° 223° (SW) 1,830 4.7 -11.7°
Maximum altitude 11:45:27 29° 284° (WNW) 1,037 3.1 -11.1°
Drops below altitude 10° 11:49:02 10° 346° (NNW) 1,851 4.7 -10.4°
Sets 11:51:27 0° 357° (N) 2,752 5.7 -10.0°
